Chicopee, MA

11:26 AM EDT on August 19, 2017 (GMT -0400)
Westover Air Reserve Base / Metropolitan Airport

Weather History for KCEF - April, 2013

Change the Weather History Date:

Monday, April 1, 2013

  Actual Average Record
Temperature  
Mean Temperature 47 °F -  
Max Temperature 62 °F 49 °F 70 °F (2016)
Min Temperature 32 °F 31 °F 23 °F (2007)
Degree Days  
Heating Degree Days 18    
Moisture  
Dew Point 38 °F    
Average Humidity 83    
Maximum Humidity 100    
Minimum Humidity 41    
Precipitation  
Precipitation 0.21 in - - ()
Sea Level Pressure  
Sea Level Pressure 29.65 in    
Wind  
Wind Speed 9 mph (NW)    
Max Wind Speed 32 mph    
Max Gust Speed 40 mph    
Visibility 9 miles    
Events Rain    
Averages and records for this station are not official NWS values.
T = Trace of Precipitation, MM = Missing Value Source: NWS Daily Summary

Daily Weather History Graph

Daily Weather History Graph

Search for Another Location

Airport or City:

Trip Planner

Search our weather history database for the weather conditions in past years. The results will help you decide how hot, cold, wet, or windy it might be!

Date:

Astronomy

Apr. 01, 2013 Rise Set
Actual Time 6:32 AM EDT 7:16 PM EDT
Civil Twilight 6:04 AM EDT 7:44 PM EDT
Nautical Twilight 5:30 AM EDT 8:18 PM EDT
Astronomical Twilight 4:55 AM EDT 8:52 PM EDT
Moon 12:26 AM EDT (4/1) 10:11 AM EDT (4/1)
Length of Visible Light 13h 40m
Length of Day
12h 43m
Waning Gibbous, 67% of the Moon is Illuminated
Apr 1
Waning Gibbous
Apr 3
Last Quarter
Apr 10
New
Apr 18
First Quarter
Apr 25
Full

Hourly Weather History & Observations

Time (EDT) Temp. Windchill Dew Point Humidity Pressure Visibility Wind Dir Wind Speed Gust Speed Precip Events Conditions
12:04 AM 44.6 °F 41.4 °F 42.8 °F 93% 29.70 in 6.0 mi NW 5.8 mph - N/A Rain Light Rain
12:55 AM 42.8 °F 38.0 °F 42.3 °F 98% 29.67 in 10.0 mi North 8.1 mph - 0.13 in Rain Light Rain
1:16 AM 42.8 °F 38.6 °F 42.8 °F 100% 29.65 in 6.0 mi NNW 6.9 mph - N/A Rain Light Rain
1:17 AM 42.8 °F 39.3 °F 42.8 °F 100% 29.65 in 6.0 mi NNW 5.8 mph - N/A Rain Light Rain
1:29 AM 42.8 °F 38.6 °F 42.8 °F 100% 29.65 in 7.0 mi NNW 6.9 mph - N/A Rain Light Rain
1:33 AM 42.8 °F 38.6 °F 42.8 °F 100% 29.65 in 7.0 mi NNW 6.9 mph - N/A Rain Light Rain
1:37 AM 42.8 °F 38.6 °F 42.8 °F 100% 29.65 in 8.0 mi NNW 6.9 mph - N/A Rain Light Rain
1:52 AM 42.8 °F 38.0 °F 42.8 °F 100% 29.64 in 7.0 mi NNW 8.1 mph - N/A Rain Light Rain
1:55 AM 42.4 °F 38.1 °F 41.9 °F 98% 29.64 in 6.0 mi North 6.9 mph - 0.06 in Rain Light Rain
2:13 AM 42.8 °F 38.0 °F 41.0 °F 93% 29.62 in 10.0 mi North 8.1 mph - N/A Rain Light Rain
2:14 AM 42.8 °F 38.0 °F 41.0 °F 93% 29.62 in 10.0 mi North 8.1 mph - N/A Rain Light Rain
2:17 AM 42.8 °F 38.0 °F 41.0 °F 93% 29.62 in 10.0 mi North 8.1 mph - N/A Rain Light Rain
2:22 AM 42.8 °F 38.0 °F 41.0 °F 93% 29.62 in 10.0 mi North 8.1 mph - N/A   Overcast
2:33 AM 42.8 °F 38.6 °F 41.0 °F 93% 29.63 in 10.0 mi NNW 6.9 mph - N/A   Overcast
2:39 AM 42.8 °F 37.5 °F 41.0 °F 93% 29.63 in 10.0 mi NNW 9.2 mph - N/A   Overcast
2:46 AM 42.8 °F 38.6 °F 41.0 °F 93% 29.63 in 10.0 mi NNW 6.9 mph - N/A   Light Drizzle
2:51 AM 42.8 °F 38.0 °F 41.0 °F 93% 29.63 in 10.0 mi NNW 8.1 mph - N/A   Light Drizzle
2:54 AM 42.8 °F 38.0 °F 41.0 °F 93% 29.63 in 10.0 mi NNW 8.1 mph - N/A   Light Drizzle
2:55 AM 42.1 °F 36.6 °F 41.5 °F 98% 29.63 in 10.0 mi NNW 9.2 mph - 0.01 in   Light Drizzle
2:59 AM 42.8 °F 38.0 °F 41.0 °F 93% 29.63 in 10.0 mi NW 8.1 mph - N/A Rain Light Rain
3:00 AM 42.8 °F 38.0 °F 41.0 °F 93% 29.63 in 10.0 mi NW 8.1 mph - N/A Rain Light Rain
3:06 AM 42.8 °F 38.0 °F 41.0 °F 93% 29.62 in 10.0 mi NNW 8.1 mph - N/A   Light Drizzle
3:14 AM 42.8 °F 38.0 °F 41.0 °F 93% 29.62 in 10.0 mi North 8.1 mph - N/A Rain Light Rain
3:18 AM 42.8 °F 38.0 °F 41.0 °F 93% 29.62 in 10.0 mi NNW 8.1 mph - N/A Rain Light Rain
3:24 AM 41.0 °F 35.8 °F 41.0 °F 100% 29.61 in 10.0 mi North 8.1 mph - N/A   Overcast
3:55 AM 41.5 °F 36.4 °F 41.0 °F 98% 29.62 in 10.0 mi NNW 8.1 mph - 0.00 in   Overcast
4:01 AM 41.0 °F 36.4 °F 41.0 °F 100% 29.62 in 10.0 mi NNW 6.9 mph - N/A   Overcast
4:23 AM 41.0 °F 36.4 °F 41.0 °F 100% 29.63 in 10.0 mi NNW 6.9 mph - N/A   Overcast
4:48 AM 41.0 °F 37.1 °F 41.0 °F 100% 29.64 in 10.0 mi West 5.8 mph - N/A   Overcast
4:55 AM 40.6 °F 36.7 °F 40.1 °F 98% 29.64 in 10.0 mi West 5.8 mph - 0.01 in   Overcast
5:08 AM 41.0 °F 39.0 °F 39.2 °F 93% 29.65 in 10.0 mi West 3.5 mph - N/A   Overcast
5:23 AM 41.0 °F 38.0 °F 39.2 °F 93% 29.66 in 10.0 mi WSW 4.6 mph - N/A   Overcast
5:50 AM 41.0 °F 39.0 °F 41.0 °F 100% 29.66 in 10.0 mi SSW 3.5 mph - N/A   Overcast
5:55 AM 41.0 °F 39.0 °F 40.5 °F 98% 29.66 in 10.0 mi South 3.5 mph - N/A   Overcast
6:27 AM 41.0 °F 39.0 °F 41.0 °F 100% 29.66 in 10.0 mi South 3.5 mph - N/A   Overcast
6:55 AM 40.6 °F - 40.1 °F 98% 29.67 in 10.0 mi Calm Calm - N/A   Overcast
6:58 AM 41.0 °F - 39.2 °F 93% 29.67 in 2.0 mi Calm Calm - N/A   Overcast
6:59 AM 41.0 °F - 39.2 °F 93% 29.67 in 1.8 mi Calm Calm - N/A   Overcast
7:04 AM 41.0 °F - 39.2 °F 93% 29.67 in 5.0 mi Calm Calm - N/A   Overcast
7:55 AM 41.7 °F - 41.2 °F 98% 29.66 in 5.0 mi Calm Calm - N/A   Mostly Cloudy
8:10 AM 42.8 °F 41.1 °F 42.8 °F 100% 29.65 in 6.0 mi South 3.5 mph - N/A   Mostly Cloudy
8:55 AM 45.5 °F 42.5 °F 43.2 °F 92% 29.65 in 10.0 mi South 5.8 mph - N/A   Mostly Cloudy
9:55 AM 48.0 °F - 43.2 °F 83% 29.65 in 10.0 mi SSW 8.1 mph - N/A   Overcast
10:55 AM 51.3 °F - 43.3 °F 74% 29.62 in 10.0 mi South 10.4 mph - N/A   Mostly Cloudy
11:55 AM 56.8 °F - 43.3 °F 61% 29.60 in 10.0 mi SSW 10.4 mph - N/A   Mostly Cloudy
12:55 PM 58.3 °F - 38.8 °F 48% 29.57 in 10.0 mi WSW 16.1 mph 23.0 mph N/A   Mostly Cloudy
1:55 PM 61.0 °F - 37.2 °F 41% 29.55 in 10.0 mi SW 20.7 mph 28.8 mph N/A   Mostly Cloudy
2:28 PM 59.0 °F - 37.4 °F 45% 29.56 in 10.0 mi WNW 26.5 mph 38.0 mph N/A Rain Light Rain
2:32 PM 55.4 °F - 42.8 °F 63% 29.56 in 9.0 mi WNW 32.2 mph 40.3 mph N/A Rain Light Rain
2:53 PM 46.4 °F 39.8 °F 42.8 °F 87% 29.59 in 10.0 mi WNW 16.1 mph - N/A   Mostly Cloudy
2:55 PM 46.8 °F - 43.3 °F 88% 29.59 in 10.0 mi WNW 18.4 mph 23.0 mph 0.00 in   Mostly Cloudy
3:41 PM 48.2 °F - 39.2 °F 71% 29.61 in 10.0 mi WNW 24.2 mph 29.9 mph N/A   Overcast
3:51 PM 44.6 °F 36.1 °F 35.6 °F 71% 29.63 in 10.0 mi WNW 21.9 mph 33.4 mph N/A   Light Drizzle
3:55 PM 44.6 °F 35.3 °F 34.9 °F 69% 29.64 in 10.0 mi NW 26.5 mph 33.4 mph 0.00 in   Light Drizzle
4:03 PM 42.8 °F 32.9 °F 32.0 °F 66% 29.64 in 10.0 mi WNW 26.5 mph 39.1 mph N/A   Mostly Cloudy
4:06 PM 42.8 °F 33.5 °F 32.0 °F 66% 29.65 in 10.0 mi WNW 23.0 mph 39.1 mph N/A   Mostly Cloudy
4:16 PM 42.8 °F 35.4 °F 32.0 °F 66% 29.65 in 10.0 mi WNW 15.0 mph 31.1 mph N/A   Light Drizzle
4:27 PM 42.8 °F 35.8 °F 32.0 °F 66% 29.66 in 10.0 mi WNW 13.8 mph 25.3 mph N/A   Mostly Cloudy
4:55 PM 42.4 °F 32.8 °F 29.5 °F 60% 29.68 in 10.0 mi NW 24.2 mph 36.8 mph 0.00 in   Overcast
5:55 PM 40.6 °F 31.7 °F 26.2 °F 57% 29.71 in 10.0 mi WNW 18.4 mph 27.6 mph N/A   Mostly Cloudy
6:55 PM 41.5 °F 33.5 °F 22.1 °F 46% 29.73 in 10.0 mi NW 16.1 mph 20.7 mph N/A   Partly Cloudy
7:55 PM 37.9 °F 30.0 °F 16.7 °F 42% 29.76 in 10.0 mi NNW 12.7 mph - N/A   Clear
8:55 PM 36.1 °F 28.7 °F 14.5 °F 41% 29.80 in 10.0 mi WNW 10.4 mph - N/A   Clear
9:55 PM 34.9 °F 26.2 °F 14.5 °F 43% 29.82 in 10.0 mi WNW 12.7 mph 20.7 mph N/A   Clear
10:55 PM 33.6 °F 26.8 °F 15.4 °F 47% 29.83 in 10.0 mi NW 8.1 mph - N/A   Clear
11:55 PM 32.5 °F 24.2 °F 14.2 °F 47% 29.85 in 10.0 mi NW 10.4 mph - N/A   Clear